Tracking 30415 objects as of 14-May-2025
HD Live streaming from Space Station
objects crossing your sky now

SL-3 DEB

Track SL-3 DEB now!
10-day predictions


NORAD ID: 14229
Int'l Code: 1983-075D
Perigee: 531.9 km
Apogee: 570.0 km
Inclination: 97.9 °
Period: 95.5 minutes
Semi major axis: 6921 km
RCS: 0.0149 m2 (small)
Launch date: July 24, 1983
Source: Commonwealth of Independent States (former USSR) (CIS)
Launch site: TYURATAM MISSILE AND SPACE COMPLEX (TTMTR)

Note: This is SATELLITE DEBRIS
Your satellite tracking list
Your tracking list is empty




NASA's NSSDC Master Catalog

Two Line Element Set (TLE):
1 14229U 83075D   25133.88608481  .00002509  00000-0  16835-3 0  9990
2 14229  97.8587 115.0298 0027547 244.1147 179.9123 15.07520467271221
Source of the keplerian elements: AFSPC